Location: Sungai Bunut
(2.6333°N, 113.7333°E)
Time: 16:05:19
(UTC+00:00)

Altair - Pass Details

Date: 10 December 2023
Orbit: 1501 x 1682 km, 47.2° (Epoch: 24 February)

Event Time Altitude Azimuth Distance (km) Brightness Sun altitude
Rises 20:25:51 0° 225° (SW) 4,931 10.0 -26.7°
Reaches altitude 10° 20:29:03 10° 226° (SW) 3,942 9.4 -26.0°
Maximum altitude 20:39:10 72° 309° (NW) 1,734 7.5 -23.7°
Drops below altitude 10° 20:49:04 10° 33° (NNE) 3,858 9.7 -21.4°
Sets 20:52:09 0° 35° (NE) 4,821 10.3 -20.7°
